Regional Weather Roundup
Issued by NWS Charleston, SC

Current Version | Previous Version | Text Only | Print | Product List | Glossary Off
Versions: 1 2 3 4 5 6 7 8 9 10 11 12 13 14 15 16 17 18 19 20 21 22 23 24 25 26 27 28 29 30 31 32 33 34 35 36 37 38 39 40 41 42 43 44 45 46 47 48 49 50
000 ASUS42 KCHS 191412 RWRCHS REGIONAL WEATHER ROUNDUP NATIONAL WEATHER SERVICE CHARLESTON SC 900 AM EST SUN FEB 19 2017 NOTE: "FAIR" INDICATES FEW OR NO CLOUDS BELOW 12,000 FEET WITH NO SIGNIFICANT WEATHER AND/OR OBSTRUCTIONS TO VISIBILITY. NOT ALL STATIONS ARE QUALITY CONTROLLED. USE DATA WITH CAUTION... ESPECIALLY DEWPOINT OBSERVATIONS. SCZ027-030-031-034>040-042>050-191500- ...SOUTHEAST SOUTH CAROLINA... CITY SKY/WX TMP DP RH WIND PRES REMARKS N CHARLESTON MOSUNNY 59 49 69 W8 30.02R WATERFRONT PRK N/A 56 50 80 VRB3 30.01R MOUNT PLEASANT FAIR 57 52 82 W5 30.03R JOHNS ISLAND FAIR 59 52 77 W9 30.03S PINOPOLIS N/A 54 50 87 W8 29.92R MONCKS CORNER FAIR 57 48 72 W3 30.02R SUMMERVILLE FAIR 55 50 82 W5 30.04R BEAUFORT MCAS SUNNY 60 53 77 W7 30.04R BEAUFORT ARPT FAIR 57 50 77 W5 30.04S HILTON HEAD IS SUNNY 63 52 67 SW6 30.06R WALTERBORO SUNNY 57 50 77 W8 30.04R ALLENDALE FAIR 59 52 77 VRB6 30.03R ...SOUTHERN MIDLANDS AND PEE DEE... CITY SKY/WX TMP DP RH WIND PRES REMARKS GEORGETOWN FAIR 54 48 82 W3 30.02S KINGSTREE FAIR 54 46 76 W8 30.01R ORANGEBURG SUNNY 56 50 80 NW6 30.03R BARNWELL FAIR 57 54 88 SW6 30.03R AIKEN FAIR 54 52 94 NW7 30.05S MANNING FAIR 55 43 62 MISG 30.01R COLUMBIA MOSUNNY 59 50 72 W10 30.02R SUMTER SUNNY 56 48 73 NW12 29.99R FLORENCE SUNNY 55 48 77 W8 30.00R MYRTLE BEACH SUNNY 55 48 76 NW8 30.02R N MYRTLE BEACH MOSUNNY 55 48 77 W6 30.00R $$ GAZ063-065-086>088-099>101-113>116-118-119-134>141-150-191500- ...SOUTHEAST GEORGIA... CITY SKY/WX TMP DP RH WIND PRES REMARKS SAVANNAH ARPT MOSUNNY 57 49 74 W6 30.06R HUNTER AAF SUNNY 58 53 83 W6 30.03R FORT STEWART SUNNY 57 51 79 CALM 30.04R STATESBORO SUNNY 58 54 85 W6 30.06R SYLVANIA SUNNY N/A N/A N/A W5 30.06R CLAXTON FAIR N/A N/A N/A CALM 30.07R ...CSRA...CENTRAL AND FAR SOUTHEAST GEORGIA... CITY SKY/WX TMP DP RH WIND PRES REMARKS THOMSON SUNNY 56 56 100 CALM 30.09R AUGUSTA-BUSH SUNNY 56 52 86 CALM 30.04R AUGUSTA-DANIEL SUNNY 57 50 77 VRB6 30.04R SWAINSBORO FAIR 52 52 100 W5 30.08R VIDALIA MOSUNNY 57 55 94 W3 30.08R EASTMAN FAIR 55 55 100 CALM 30.10R HAZLEHURST PTSUNNY 56 56 100 CALM 30.08R FOG ALMA CLOUDY 57 57 100 NW6 30.09R FOG WAYCROSS CLOUDY 63 63 100 N5 30.08R JESUP CLOUDY 59 55 88 NW6 30.08R FOG BAXLEY FOG 57 57 100 W5 30.08R VSB 1/2 BRUNSWICK CLOUDY 61 61 100 W7 30.08S SAINT SIMONS CLOUDY 60 59 96 NW7 30.07R $$ SCZ027-028-034-036>038-045-046-048>050-GAZ119-141-191500- ...LAKE AND SUPPLEMENTAL COASTAL OBSERVATIONS... STATION/POSITION TIME TEMP WIND PRES WAVE SWELL AIR SEA DIR/SP/G HT/PER HT/PER/DIR (UTC) (F) (DEG/KT/KT) (MB) (FT/S) (FT/S/D) WINYAH BAY NOT AVBL LAKE MURRAY 1320 51 280/ 5/ 8 1015.9 ACE BASIN NERRS 1245 50 CALM 1016.0 FORT PULASKI 1348 57 59 290/ 6/ 6 1017.8R SAPELO ISLAND 1300 55 280/ 5 1018.0 $$ ANZ835-935-AMZ111-154-330-350-352-354-370-450-454-472-191500- ...C-MAN AND BUOY OBSERVATIONS... STATION/POSITION TIME TEMP WIND PRES WAVE SWELL AIR SEA DIR/SP/G HT/PER HT/PER/DIR (UTC) (F) (DEG/KT/KT) (MB) (FT/S) (FT/S/D) BUOY 41004 1350 61 68 300/ 14/ 16 1016.1R 3/ 3 2/ 90/10 BUOY 41008 1350 60 61 270/ 10/ 12 1017.8R 1/ 9 FOLLY BEACH CMAN 1300 53 270/ 3/ 6 1016.7R CAPERS NEARSHORE 1308 55 58 280/ 8/ 10 1016.2R FRIPP NEARSHORE 1308 58 59 280/ 6/ 8 1016.8R STATION/POSITION TIME TEMP WIND PRES WAVE SWELL AIR SEA DIR/SP/G HT/PER HT/PER/DIR (UTC) (F) (DEG/KT/KT) (MB) (FT/S) (FT/S/D) 5E ST. MARYS GA 1330 63 N/A 1/ 5 FRYING PAN BUOY 1350 60 64 280/ 14/ 16 1015.5R 3/ 6 2/180/ 6 BUOY 41025 1350 62 67 280/ 8/ 10 1012.7R 2/ 5 2/220/ 5 CAPE LOOKOUT NC 1300 55 240/ 6/ 8 1013.4R BUOY 41002 1350 69 71 190/ 14/ 16 1015.7R 5/ 6 3/ 60/10 BUOY 41010 NOT AVBL ST AUGUSTINE FL 1400 63 65 320/ 10/ 12 1019.1R $$

USA.gov is the U.S. government's official web portal to all federal, state and local government web resources and services.